Location: Lafig�re
(44.4503°N, 4.0357°E)
Time: 22:00:37
(UTC+00:00)

Cosmos 1092 Rocket - Pass Details

Date: 29 January 2021
Orbit: 954 x 995 km, 83.0° (Epoch: 07 March)

Event Time Altitude Azimuth Distance (km) Brightness Sun altitude
Rises 18:52:42 0° 221° (SW) 3,640 7.6 -22.1°
Reaches altitude 10° 18:55:36 10° 233° (SW) 2,693 7.1 -22.6°
Maximum altitude 19:00:45 27° 290° (WNW) 1,741 5.9 -23.5°
Drops below altitude 10° 19:05:55 10° 347° (NNW) 2,694 6.4 -24.5°
Sets 19:08:50 0° 359° (N) 3,643 7.0 -25.0°
